Time,TemperatureF,DewpointF,PressureIn,WindDirection,WindDirectionDegrees,WindSpeedMPH,WindSpeedGustMPH,Humidity,HourlyPrecipIn,Conditions,Clouds,dailyrainin,SoftwareType,DateUTC
2013-06-08 00:21:00,74.4,74.0,29.88,NE,39,0.0,0.0,97,0.00,,,0.00,weatherlink.com 1.10,2013-06-08 04:21:00,
2013-06-08 00:36:00,74.2,73.0,29.88,NE,39,0.0,0.0,97,0.00,,,0.00,weatherlink.com 1.10,2013-06-08 04:36:00,
2013-06-08 00:51:00,74.0,73.0,29.89,NE,39,0.0,0.0,97,0.00,,,0.00,weatherlink.com 1.10,2013-06-08 04:51:00,
2013-06-08 01:06:00,73.9,73.0,29.89,NE,39,0.0,1.0,97,0.00,,,0.00,weatherlink.com 1.10,2013-06-08 05:06:00,
2013-06-08 01:21:00,73.8,73.0,29.88,NE,38,0.0,1.0,98,0.00,,,0.00,weatherlink.com 1.10,2013-06-08 05:21:00,
2013-06-08 01:36:00,74.0,73.0,29.88,NE,35,0.0,0.0,98,0.00,,,0.00,weatherlink.com 1.10,2013-06-08 05:36:00,
2013-06-08 01:51:00,74.0,73.0,29.89,NE,34,0.0,1.0,98,0.00,,,0.00,weatherlink.com 1.10,2013-06-08 05:51:00,
2013-06-08 02:06:00,74.3,74.0,29.89,NNW,345,0.0,1.0,98,0.00,,,0.00,weatherlink.com 1.10,2013-06-08 06:06:00,
2013-06-08 02:21:00,74.4,74.0,29.89,NE,48,0.0,0.0,97,0.00,,,0.00,weatherlink.com 1.10,2013-06-08 06:21:00,
2013-06-08 02:36:00,74.3,74.0,29.89,NE,48,0.0,0.0,98,0.00,,,0.00,weatherlink.com 1.10,2013-06-08 06:36:00,
2013-06-08 02:51:00,74.2,73.0,29.89,NE,48,0.0,0.0,97,0.00,,,0.00,weatherlink.com 1.10,2013-06-08 06:51:00,
2013-06-08 03:06:00,73.8,73.0,29.89,NE,48,0.0,0.0,98,0.00,,,0.00,weatherlink.com 1.10,2013-06-08 07:06:00,
2013-06-08 03:21:00,73.6,73.0,29.88,NE,48,0.0,0.0,98,0.00,,,0.00,weatherlink.com 1.10,2013-06-08 07:21:00,
2013-06-08 03:36:00,73.4,73.0,29.88,NE,48,0.0,0.0,98,0.00,,,0.00,weatherlink.com 1.10,2013-06-08 07:36:00,
2013-06-08 03:51:00,73.4,73.0,29.88,NE,48,0.0,0.0,99,0.00,,,0.00,weatherlink.com 1.10,2013-06-08 07:51:00,
2013-06-08 04:06:00,73.3,73.0,29.89,NE,48,0.0,0.0,98,0.00,,,0.00,weatherlink.com 1.10,2013-06-08 08:06:00,
2013-06-08 04:21:00,73.1,73.0,29.90,NE,47,0.0,0.0,98,0.00,,,0.00,weatherlink.com 1.10,2013-06-08 08:21:00,
2013-06-08 04:36:00,73.1,73.0,29.90,NE,47,0.0,1.0,99,0.00,,,0.00,weatherlink.com 1.10,2013-06-08 08:36:00,
2013-06-08 04:51:00,73.2,73.0,29.91,NE,47,0.0,0.0,99,0.00,,,0.00,weatherlink.com 1.10,2013-06-08 08:51:00,
2013-06-08 05:06:00,73.0,73.0,29.90,NE,47,0.0,0.0,99,0.00,,,0.00,weatherlink.com 1.10,2013-06-08 09:06:00,
2013-06-08 05:21:00,73.0,73.0,29.90,NE,47,0.0,0.0,99,0.00,,,0.00,weatherlink.com 1.10,2013-06-08 09:21:00,
2013-06-08 05:37:00,73.0,73.0,29.90,NE,49,1.0,1.0,99,0.00,,,0.00,weatherlink.com 1.10,2013-06-08 09:37:00,
2013-06-08 05:51:00,73.4,73.0,29.91,NNE,20,0.0,1.0,99,0.00,,,0.00,weatherlink.com 1.10,2013-06-08 09:51:00,
2013-06-08 06:07:00,73.4,73.0,29.91,NE,50,0.0,0.0,99,0.00,,,0.00,weatherlink.com 1.10,2013-06-08 10:07:00,
2013-06-08 06:22:00,73.5,73.0,29.92,NE,50,0.0,0.0,99,0.00,,,0.00,weatherlink.com 1.10,2013-06-08 10:22:00,
2013-06-08 06:37:00,73.7,73.0,29.92,NE,50,0.0,0.0,99,0.00,,,0.00,weatherlink.com 1.10,2013-06-08 10:37:00,
2013-06-08 06:52:00,74.0,74.0,29.93,NE,50,0.0,0.0,99,0.00,,,0.00,weatherlink.com 1.10,2013-06-08 10:52:00,
2013-06-08 07:07:00,74.6,75.0,29.93,ENE,65,0.0,1.0,100,0.00,,,0.00,weatherlink.com 1.10,2013-06-08 11:07:00,
2013-06-08 07:22:00,74.8,75.0,29.93,NE,51,0.0,1.0,99,0.00,,,0.00,weatherlink.com 1.10,2013-06-08 11:22:00,
2013-06-08 07:37:00,75.0,74.0,29.94,North,359,1.0,3.0,98,0.00,,,0.00,weatherlink.com 1.10,2013-06-08 11:37:00,
2013-06-08 07:52:00,76.7,75.0,29.95,WSW,242,0.0,5.0,93,0.00,,,0.00,weatherlink.com 1.10,2013-06-08 11:52:00,
2013-06-08 08:07:00,78.6,75.0,29.95,NW,311,1.0,4.0,87,0.00,,,0.00,weatherlink.com 1.10,2013-06-08 12:07:00,
2013-06-08 08:22:00,79.7,74.0,29.96,WNW,290,0.0,8.0,83,0.00,,,0.00,weatherlink.com 1.10,2013-06-08 12:22:00,
2013-06-08 08:37:00,80.3,74.0,29.97,WSW,246,1.0,4.0,82,0.00,,,0.00,weatherlink.com 1.10,2013-06-08 12:37:00,
2013-06-08 08:52:00,81.1,75.0,29.98,SW,220,1.0,5.0,82,0.00,,,0.00,weatherlink.com 1.10,2013-06-08 12:52:00,
2013-06-08 09:07:00,81.3,74.0,29.98,NW,324,1.0,4.0,79,0.00,,,0.00,weatherlink.com 1.10,2013-06-08 13:07:00,
2013-06-08 09:22:00,81.2,74.0,29.99,WNW,294,1.0,7.0,78,0.00,,,0.00,weatherlink.com 1.10,2013-06-08 13:22:00,
2013-06-08 09:37:00,82.8,76.0,29.99,WSW,253,0.0,4.0,79,0.00,,,0.00,weatherlink.com 1.10,2013-06-08 13:37:00,
2013-06-08 09:52:00,82.0,75.0,30.00,West,271,1.0,6.0,78,0.00,,,0.00,weatherlink.com 1.10,2013-06-08 13:52:00,
2013-06-08 10:07:00,82.7,74.0,30.00,NE,44,1.0,4.0,75,0.00,,,0.00,weatherlink.com 1.10,2013-06-08 14:07:00,
2013-06-08 10:22:00,81.8,74.0,30.01,WNW,302,0.0,6.0,77,0.00,,,0.00,weatherlink.com 1.10,2013-06-08 14:22:00,
2013-06-08 10:37:00,82.9,74.0,30.01,West,279,1.0,4.0,75,0.00,,,0.00,weatherlink.com 1.10,2013-06-08 14:37:00,
2013-06-08 10:52:00,83.9,75.0,30.01,NW,316,0.0,5.0,74,0.00,,,0.00,weatherlink.com 1.10,2013-06-08 14:52:00,
2013-06-08 11:07:00,83.8,74.0,30.01,SSE,162,1.0,4.0,73,0.00,,,0.00,weatherlink.com 1.10,2013-06-08 15:07:00,
2013-06-08 11:22:00,84.8,73.0,30.01,West,276,0.0,6.0,68,0.00,,,0.00,weatherlink.com 1.10,2013-06-08 15:22:00,
2013-06-08 11:37:00,85.0,75.0,30.02,NE,34,1.0,5.0,72,0.00,,,0.00,weatherlink.com 1.10,2013-06-08 15:37:00,
2013-06-08 11:52:00,86.3,76.0,30.02,WSW,249,0.0,7.0,72,0.00,,,0.00,weatherlink.com 1.10,2013-06-08 15:52:00,
2013-06-08 12:07:00,86.1,74.0,30.02,WNW,302,0.0,6.0,68,0.00,,,0.00,weatherlink.com 1.10,2013-06-08 16:07:00,
2013-06-08 12:22:00,85.5,75.0,30.02,WSW,255,0.0,4.0,71,0.00,,,0.00,weatherlink.com 1.10,2013-06-08 16:22:00,
2013-06-08 12:37:00,85.9,76.0,30.02,SW,215,1.0,5.0,73,0.00,,,0.00,weatherlink.com 1.10,2013-06-08 16:37:00,
2013-06-08 12:52:00,86.7,73.0,30.02,WNW,282,3.0,6.0,64,0.00,,,0.00,weatherlink.com 1.10,2013-06-08 16:52:00,
2013-06-08 13:08:00,87.3,76.0,30.02,SW,214,0.0,5.0,69,0.00,,,0.00,weatherlink.com 1.10,2013-06-08 17:08:00,
2013-06-08 13:23:00,87.1,73.0,30.01,WSW,240,1.0,5.0,63,0.00,,,0.00,weatherlink.com 1.10,2013-06-08 17:23:00,
2013-06-08 13:38:00,87.9,77.0,30.01,West,277,2.0,5.0,70,0.00,,,0.00,weatherlink.com 1.10,2013-06-08 17:38:00,
2013-06-08 13:53:00,86.2,74.0,30.01,West,278,0.0,3.0,66,0.00,,,0.00,weatherlink.com 1.10,2013-06-08 17:53:00,
2013-06-08 14:08:00,86.7,74.0,30.01,WNW,294,0.0,7.0,65,0.00,,,0.00,weatherlink.com 1.10,2013-06-08 18:08:00,
2013-06-08 14:23:00,86.7,75.0,30.01,WNW,295,0.0,3.0,68,0.00,,,0.00,weatherlink.com 1.10,2013-06-08 18:23:00,
2013-06-08 14:38:00,88.6,74.0,30.01,West,277,1.0,5.0,63,0.00,,,0.00,weatherlink.com 1.10,2013-06-08 18:38:00,
2013-06-08 14:53:00,87.7,73.0,30.01,West,267,0.0,5.0,62,0.00,,,0.00,weatherlink.com 1.10,2013-06-08 18:53:00,
2013-06-08 15:08:00,87.9,71.0,30.01,West,267,0.0,5.0,58,0.00,,,0.00,weatherlink.com 1.10,2013-06-08 19:08:00,
2013-06-08 15:23:00,88.3,73.0,30.01,WNW,293,5.0,6.0,61,0.00,,,0.00,weatherlink.com 1.10,2013-06-08 19:23:00,
2013-06-08 15:38:00,88.5,73.0,30.00,NW,307,1.0,4.0,61,0.00,,,0.00,weatherlink.com 1.10,2013-06-08 19:38:00,
2013-06-08 15:53:00,88.7,72.0,30.01,West,266,1.0,7.0,58,0.00,,,0.00,weatherlink.com 1.10,2013-06-08 19:53:00,
2013-06-08 16:08:00,88.9,75.0,30.01,NW,306,0.0,3.0,63,0.00,,,0.00,weatherlink.com 1.10,2013-06-08 20:08:00,
2013-06-08 16:23:00,88.2,73.0,30.00,WNW,300,4.0,4.0,61,0.00,,,0.00,weatherlink.com 1.10,2013-06-08 20:23:00,
2013-06-08 16:38:00,88.1,73.0,30.00,WNW,302,2.0,5.0,61,0.00,,,0.00,weatherlink.com 1.10,2013-06-08 20:38:00,
2013-06-08 16:53:00,88.0,74.0,30.01,WNW,291,1.0,4.0,63,0.00,,,0.00,weatherlink.com 1.10,2013-06-08 20:53:00,
2013-06-08 17:08:00,87.9,74.0,30.01,SSW,201,0.0,2.0,63,0.00,,,0.00,weatherlink.com 1.10,2013-06-08 21:08:00,
2013-06-08 17:23:00,87.7,73.0,30.00,West,269,0.0,2.0,62,0.00,,,0.00,weatherlink.com 1.10,2013-06-08 21:23:00,
2013-06-08 17:38:00,86.5,73.0,30.01,SW,226,0.0,1.0,65,0.00,,,0.00,weatherlink.com 1.10,2013-06-08 21:38:00,
2013-06-08 17:53:00,86.2,77.0,30.02,NNE,29,0.0,2.0,74,0.00,,,0.00,weatherlink.com 1.10,2013-06-08 21:53:00,
2013-06-08 18:08:00,85.2,78.0,30.02,SE,146,0.0,1.0,78,0.00,,,0.00,weatherlink.com 1.10,2013-06-08 22:08:00,
2013-06-08 18:23:00,84.6,78.0,30.02,NE,39,0.0,1.0,80,0.00,,,0.00,weatherlink.com 1.10,2013-06-08 22:23:00,
2013-06-08 18:38:00,83.8,78.0,30.03,ESE,123,0.0,2.0,83,0.00,,,0.00,weatherlink.com 1.10,2013-06-08 22:38:00,
2013-06-08 18:53:00,83.7,78.0,30.04,ENE,62,0.0,2.0,83,0.00,,,0.00,weatherlink.com 1.10,2013-06-08 22:53:00,
2013-06-08 19:08:00,83.6,78.0,30.04,NNE,20,0.0,2.0,83,0.00,,,0.00,weatherlink.com 1.10,2013-06-08 23:08:00,
2013-06-08 19:23:00,82.5,77.0,30.05,SSE,159,0.0,2.0,84,0.00,,,0.00,weatherlink.com 1.10,2013-06-08 23:23:00,
2013-06-08 19:38:00,82.3,77.0,30.05,SE,140,0.0,0.0,84,0.00,,,0.00,weatherlink.com 1.10,2013-06-08 23:38:00,
2013-06-08 19:53:00,81.7,77.0,30.05,SE,140,0.0,0.0,85,0.00,,,0.00,weatherlink.com 1.10,2013-06-08 23:53:00,
2013-06-08 20:08:00,80.8,77.0,30.06,SE,139,0.0,0.0,88,0.00,,,0.00,weatherlink.com 1.10,2013-06-09 00:08:00,
2013-06-08 20:23:00,79.9,77.0,30.07,SE,139,0.0,0.0,89,0.00,,,0.00,weatherlink.com 1.10,2013-06-09 00:23:00,
2013-06-08 20:38:00,79.0,76.0,30.07,SE,139,0.0,0.0,90,0.00,,,0.00,weatherlink.com 1.10,2013-06-09 00:38:00,
2013-06-08 20:53:00,78.4,76.0,30.07,SE,139,0.0,0.0,92,0.00,,,0.00,weatherlink.com 1.10,2013-06-09 00:53:00,
2013-06-08 21:08:00,77.8,76.0,30.08,SE,139,0.0,0.0,93,0.00,,,0.00,weatherlink.com 1.10,2013-06-09 01:08:00,
2013-06-08 21:23:00,77.3,76.0,30.08,SE,139,0.0,0.0,94,0.00,,,0.00,weatherlink.com 1.10,2013-06-09 01:23:00,
2013-06-08 21:38:00,77.0,76.0,30.08,SE,139,0.0,0.0,95,0.00,,,0.00,weatherlink.com 1.10,2013-06-09 01:38:00,
2013-06-08 21:53:00,76.6,75.0,30.09,SE,139,0.0,0.0,95,0.00,,,0.00,weatherlink.com 1.10,2013-06-09 01:53:00,
2013-06-08 22:08:00,76.3,75.0,30.10,SE,139,0.0,0.0,96,0.00,,,0.00,weatherlink.com 1.10,2013-06-09 02:08:00,
2013-06-08 22:23:00,76.0,75.0,30.10,SE,139,0.0,0.0,96,0.00,,,0.00,weatherlink.com 1.10,2013-06-09 02:23:00,
2013-06-08 22:38:00,75.7,75.0,30.11,SE,139,0.0,0.0,96,0.00,,,0.00,weatherlink.com 1.10,2013-06-09 02:38:00,
2013-06-08 22:53:00,75.4,75.0,30.11,ESE,105,1.0,1.0,97,0.00,,,0.00,weatherlink.com 1.10,2013-06-09 02:53:00,
2013-06-08 23:08:00,75.5,75.0,30.11,ENE,77,0.0,1.0,97,0.00,,,0.00,weatherlink.com 1.10,2013-06-09 03:08:00,
2013-06-08 23:23:00,75.4,75.0,30.12,ENE,77,0.0,0.0,97,0.00,,,0.00,weatherlink.com 1.10,2013-06-09 03:23:00,
2013-06-08 23:38:00,75.3,74.0,30.12,ENE,77,0.0,0.0,97,0.00,,,0.00,weatherlink.com 1.10,2013-06-09 03:38:00,
2013-06-08 23:53:00,75.2,74.0,30.12,ENE,77,0.0,0.0,97,0.00,,,0.00,weatherlink.com 1.10,2013-06-09 03:53:00,